CAPE
nan nan nan nan nan nan nan nan nan nan nan nan nan nan nan nan nan nan nan nan nan nan nan nan nan nan nan nan nan nan nan nan nan nan 0 1 2 2 3 4 4 5 6 7 7 8 8 7 7 9 13 17 22 22 25 25 25 25 24 26 26 29 32 35 35 42 46 49 51 51 56 70 86 86 108 113 114 114 109 104 104 99 97 102 102 106
nan nan nan nan nan nan nan nan nan nan nan nan nan nan nan nan nan nan nan nan nan nan nan nan nan nan nan nan nan nan nan nan nan nan nan 0 1 1 2 3 3 4 6 7 7 7 6 6 6 7 9 13 17 17 20 21 21 21 20 21 21 24 28 32 32 41 46 49 51 51 59 68 82 82 96 97 92 92 86 86 86 93 99 113 113 113
nan nan nan nan nan nan nan nan nan nan nan nan nan nan nan nan nan nan nan nan nan nan nan nan nan nan nan nan nan nan nan nan nan nan nan nan 0 0 1 2 2 3 5 6 6 5 5 5 5 5 6 8 12 12 14 17 17 19 19 20 20 21 23 25 25 31 39 45 49 49 57 67 76 76 79 74 73 73 71 77 77 92 109 124 124 129
nan nan nan nan nan nan nan nan nan nan nan nan nan nan nan nan nan nan nan nan nan nan nan nan nan nan nan nan nan nan nan nan nan nan nan nan nan nan 0 0 0 2 3 4 4 3 4 3 3 3 4 6 9 9 12 14 14 16 18 19 19 19 20 22 22 26 30 40 47 47 51 58 62 62 65 62 64 64 73 89 89 102 128 132 132 144
nan nan nan nan nan nan nan nan nan nan nan nan nan nan nan nan nan nan nan nan nan nan nan nan nan nan nan nan nan nan nan nan nan nan nan nan nan nan nan 0 0 1 1 1 1 2 2 2 2 2 3 5 7 7 10 12 12 13 13 16 16 18 19 23 23 24 29 35 41 41 45 50 57 57 61 65 72 72 82 96 96 117 133 140 140 152
nan nan nan nan nan nan nan nan nan nan nan nan nan nan nan nan nan nan nan nan nan nan nan nan nan nan nan nan nan nan nan nan nan nan nan nan nan nan nan nan nan 0 0 0 0 0 1 1 1 1 2 3 5 5 6 8 8 9 11 13 13 16 20 25 25 29 33 39 42 42 46 53 62 62 68 72 75 75 85 102 102 127 141 149 149 161
nan nan nan nan nan nan nan nan nan nan nan nan nan nan nan nan nan nan nan nan nan nan nan nan nan nan nan nan nan nan nan nan nan nan nan nan nan nan nan nan nan nan nan nan nan nan 0 0 0 0 1 2 3 3 4 5 5 7 9 12 12 18 24 29 29 35 39 42 46 46 51 62 67 67 77 78 82 82 92 107 107 137 151 156 156 163
nan nan nan nan nan nan nan nan nan nan nan nan nan nan nan nan nan nan nan nan nan nan nan nan nan nan nan nan nan nan nan nan nan nan nan nan nan nan nan nan nan nan nan nan nan nan nan nan nan nan 0 0 1 1 1 2 2 4 9 15 15 22 31 40 40 46 51 59 63 63 67 73 79 79 81 89 87 87 93 103 103 112 135 143 143 156
nan nan nan nan nan nan nan nan nan nan nan nan nan nan nan nan nan nan nan nan nan nan nan nan nan nan nan nan nan nan nan nan nan nan nan nan nan nan nan nan nan nan nan nan nan nan nan nan nan nan nan 0 0 0 0 1 1 4 12 20 20 27 36 44 44 49 59 61 69 69 71 70 73 73 68 74 73 73 75 81 81 91 103 124 124 138
nan nan nan nan nan nan nan nan nan nan nan nan nan nan nan nan nan nan nan nan nan nan nan nan nan nan nan nan nan nan nan nan nan nan nan nan nan nan nan nan nan nan nan nan nan nan nan nan nan nan nan nan nan nan nan 1 1 7 14 22 22 29 35 41 41 49 54 54 57 57 59 58 58 58 57 58 60 60 63 69 69 73 88 101 101 121
nan nan nan nan nan nan nan nan nan nan nan nan nan nan nan nan nan nan nan nan nan nan nan nan nan nan nan nan nan nan nan nan nan nan nan nan nan nan nan nan nan nan nan nan nan nan nan nan nan nan nan nan nan nan nan 2 2 9 18 24 24 28 36 38 38 44 45 45 45 45 45 45 47 47 48 49 53 53 59 69 69 74 82 90 90 101
nan nan nan nan nan nan nan nan nan nan nan nan nan nan nan nan nan nan nan nan nan nan nan nan nan nan nan nan nan nan nan nan nan nan nan nan nan nan nan nan nan nan nan nan nan nan nan nan nan nan nan nan nan nan 0 3 3 12 19 23 23 28 33 34 34 35 38 38 39 39 38 40 41 41 45 48 51 51 58 69 69 75 80 81 81 87
nan nan nan nan nan nan nan nan nan nan nan nan nan nan nan nan nan nan nan nan nan nan nan nan nan nan nan nan nan nan nan nan nan nan nan nan nan nan nan nan nan nan nan nan nan nan nan nan nan nan nan nan nan nan 0 6 6 13 19 23 23 26 28 30 30 32 32 32 34 34 36 39 43 43 45 49 55 55 60 68 68 72 74 76 76 83
nan nan nan nan nan nan nan nan nan nan nan nan nan nan nan nan nan nan nan nan nan nan nan nan nan nan nan nan nan nan nan nan nan nan nan nan nan nan nan nan nan nan nan nan nan nan nan nan nan nan nan nan nan nan 1 7 7 14 18 22 22 24 26 26 26 26 29 30 34 34 37 41 44 44 49 50 56 56 57 61 61 68 71 75 75 84
nan nan nan nan nan nan nan nan nan nan nan nan nan nan nan nan nan nan nan nan nan nan nan nan nan nan nan nan nan nan nan nan nan nan nan nan nan nan nan nan nan nan nan nan nan nan nan nan nan nan nan nan nan nan 0 6 6 16 17 20 20 23 23 23 23 25 26 30 34 34 38 40 43 43 48 51 52 52 55 61 61 67 76 86 86 93
nan nan nan nan nan nan nan nan nan nan nan nan nan nan nan nan nan nan nan nan nan nan nan nan nan nan nan nan nan nan nan nan nan nan nan nan nan nan nan nan nan nan nan nan nan nan nan nan nan nan nan nan nan nan 2 7 7 14 16 18 18 21 21 23 23 24 26 29 33 33 37 39 42 42 46 49 54 54 57 64 64 72 80 95 95 108
nan nan nan nan nan nan nan nan nan nan nan nan nan nan nan nan nan nan nan nan nan nan nan nan nan nan nan nan nan nan nan nan nan nan nan nan nan nan nan nan nan nan nan nan nan nan nan nan nan nan nan nan nan nan 1 6 6 12 16 18 18 20 20 23 23 24 27 29 32 32 36 38 41 41 44 49 54 54 60 70 70 79 88 99 99 113
nan nan nan nan nan nan nan nan nan nan nan nan nan nan nan nan nan nan nan nan nan nan nan nan nan nan nan nan nan nan nan nan nan nan nan nan nan nan nan nan nan nan nan nan nan nan nan nan nan nan nan nan nan nan 2 6 6 11 14 17 17 18 20 23 23 24 27 28 29 29 34 36 39 39 43 50 58 58 65 74 74 83 93 103 103 119
nan nan nan nan nan nan nan nan nan nan nan nan nan nan nan nan nan nan nan nan nan nan nan nan nan nan nan nan nan nan nan nan nan nan nan nan nan nan nan nan nan nan nan nan nan nan nan nan nan nan nan nan nan nan 2 5 5 9 14 15 15 18 19 23 23 25 28 28 29 29 31 38 40 40 44 52 60 60 70 77 77 87 97 113 113 125
nan nan nan nan nan nan nan nan nan nan nan nan nan nan nan nan nan nan nan nan nan nan nan nan nan nan nan nan nan nan nan nan nan nan nan nan nan nan nan nan nan nan nan nan nan nan nan nan nan nan nan nan nan nan 1 3 3 6 11 14 14 16 18 22 22 24 26 26 29 29 31 35 39 39 43 53 63 63 72 84 84 95 109 120 120 125
nan nan nan nan nan nan nan nan nan nan nan nan nan nan nan nan nan nan nan nan nan nan nan nan nan nan nan nan nan nan nan nan nan nan nan nan nan nan nan nan nan nan nan nan nan nan nan nan nan nan nan nan nan nan 1 2 2 4 7 11 11 14 17 18 18 20 23 24 28 28 30 35 40 40 44 55 65 65 78 92 92 105 117 120 120 121
nan nan nan nan nan nan nan nan nan nan nan nan nan nan nan nan nan nan nan nan nan nan nan nan nan nan nan nan nan nan nan nan nan nan nan nan nan nan nan nan nan nan nan nan nan nan nan nan nan nan nan nan nan nan 0 1 1 3 6 9 9 12 14 16 16 18 21 24 27 27 32 35 42 42 47 58 71 71 85 100 100 112 120 116 116 112
nan nan nan nan nan nan nan nan nan nan nan nan nan nan nan nan nan nan nan nan nan nan nan nan nan nan nan nan nan nan nan nan nan nan nan nan nan nan nan nan nan nan nan nan nan nan nan nan nan nan nan nan nan nan 0 0 0 2 5 9 9 12 12 14 14 17 20 24 29 29 34 37 44 44 51 60 76 76 91 107 107 115 116 114 114 105
nan nan nan nan nan nan nan nan nan nan nan nan nan nan nan nan nan nan nan nan nan nan nan nan nan nan nan nan nan nan nan nan nan nan nan nan nan nan nan nan nan nan nan nan nan nan nan nan nan nan nan nan nan nan 0 0 0 2 5 7 7 10 12 13 13 15 19 23 30 30 36 40 47 47 57 65 78 78 97 111 111 115 113 108 108 98
nan nan nan nan nan nan nan nan nan nan nan nan nan nan nan nan nan nan nan nan nan nan nan nan nan nan nan nan nan nan nan nan nan nan nan nan nan nan nan nan nan nan nan nan nan nan nan nan nan nan nan nan nan nan nan 0 0 2 4 7 7 9 10 13 13 16 20 25 33 33 38 45 50 50 57 67 80 80 99 106 106 110 106 96 96 86
nan nan nan nan nan 2 4 8 10 10 3 nan nan nan nan nan nan nan nan nan nan nan nan nan nan nan nan nan nan nan nan nan nan nan nan nan nan nan nan nan nan nan nan nan nan nan nan nan nan nan nan nan nan nan nan 0 0 2 4 6 6 7 10 12 12 16 20 27 34 34 41 46 52 52 60 68 85 85 100 102 102 100 98 88 88 75
3 2 3 4 4 6 8 8 9 9 12 12 1 1 nan nan nan nan nan nan nan nan nan nan nan nan nan nan nan nan nan nan nan nan nan nan nan nan nan nan nan nan nan nan nan nan nan nan nan nan nan nan nan nan nan 0 0 1 3 5 5 6 8 11 11 16 23 28 33 33 40 48 53 53 58 69 88 88 100 95 95 95 89 84 84 71
3 2 3 4 4 6 5 3 4 4 9 12 19 19 nan nan nan nan nan nan nan nan nan nan nan nan nan nan nan nan nan nan nan nan nan nan nan nan nan nan nan nan nan nan nan nan nan nan nan nan nan nan nan nan nan 0 0 0 2 3 3 4 7 10 10 16 22 27 33 33 39 45 49 49 58 69 88 88 95 92 92 89 82 49 49 1
3 3 3 2 2 1 0 nan 0 0 4 8 14 14 nan nan nan nan nan nan nan nan nan nan nan nan nan nan nan nan nan nan nan nan nan nan nan nan nan nan nan nan nan nan nan nan nan nan nan nan nan nan nan nan nan nan nan nan 1 1 1 2 5 9 9 16 21 25 29 29 36 42 47 47 56 71 86 86 93 90 90 87 70 31 31 3
nan nan nan nan nan nan nan nan nan nan 2 5 7 7 nan nan nan nan nan nan nan nan nan nan nan nan nan nan nan nan nan nan nan nan nan nan nan nan nan nan nan nan nan nan nan nan nan nan nan nan nan nan nan nan nan nan nan nan nan nan nan 0 3 7 7 14 18 22 25 25 32 38 42 42 53 70 81 81 85 86 86 77 36 8 8 3
nan nan nan nan nan nan nan nan nan nan nan 2 0 0 nan nan nan nan nan nan nan nan nan nan nan nan nan nan nan nan nan nan nan nan nan nan nan nan nan nan nan nan nan nan nan nan nan nan nan nan nan nan nan nan nan nan nan nan nan nan nan nan 1 7 7 12 16 18 22 22 29 35 41 41 54 69 80 80 83 88 88 73 26 8 8 3
nan nan nan nan nan nan nan nan nan nan nan nan nan nan nan nan nan nan nan nan nan nan nan nan nan nan nan nan nan nan nan nan nan nan nan nan nan nan nan nan nan nan nan nan nan nan nan nan nan nan nan nan nan nan nan nan nan nan nan nan nan nan nan 3 3 4 4 13 18 18 25 33 41 41 55 62 70 70 71 75 75 69 27 8 8 13
nan nan nan nan nan nan nan nan nan nan nan nan nan nan nan nan nan nan nan nan nan nan nan nan nan nan nan nan nan nan nan nan nan nan nan nan nan nan nan nan nan nan nan nan nan nan nan nan nan nan nan nan nan nan nan nan nan nan nan nan nan nan nan nan nan nan nan 2 4 4 19 29 44 44 55 57 64 64 65 67 67 68 52 9 9 16
nan nan nan nan nan nan nan nan nan nan nan nan nan nan nan nan nan nan nan nan nan nan nan nan nan nan nan nan nan nan nan nan nan nan nan nan nan nan nan nan nan nan nan nan nan nan nan nan nan nan nan nan nan nan nan nan nan nan nan nan nan nan nan nan nan nan nan nan nan nan nan 1 39 39 48 50 52 52 56 61 61 62 55 36 36 20
nan nan nan nan nan nan nan nan nan nan nan nan nan nan nan nan nan nan nan nan nan nan nan nan nan nan nan nan nan nan nan nan nan nan nan nan nan nan nan nan nan nan nan nan nan nan nan nan nan 0 nan nan nan nan nan nan nan nan nan nan nan nan nan nan nan nan nan nan nan nan nan nan 8 8 20 31 41 41 47 50 50 52 52 56 56 36
nan nan nan nan nan nan nan nan nan nan nan nan nan nan nan nan nan nan nan nan nan nan nan nan nan nan nan nan nan nan nan nan nan nan nan nan nan nan nan nan nan nan nan nan nan nan nan nan nan nan nan nan nan nan nan nan nan nan nan nan nan nan nan nan nan nan nan nan nan nan nan 1 6 6 7 29 35 35 38 38 38 39 43 50 50 44
nan nan nan nan nan nan nan nan nan nan nan nan nan nan nan nan nan nan nan nan nan nan nan nan nan nan nan nan nan nan nan nan nan nan nan nan nan nan nan nan nan nan nan nan nan nan nan nan nan nan nan nan nan nan nan nan nan nan nan nan nan nan nan nan nan nan nan nan nan nan 1 3 3 3 7 25 19 19 22 26 26 26 34 38 38 44
nan nan nan nan nan nan nan nan nan nan nan nan nan nan nan nan nan nan nan nan nan nan nan nan nan nan nan nan nan nan nan nan nan nan nan nan nan nan nan nan nan nan nan nan nan nan nan nan nan nan nan nan nan nan nan nan nan nan nan nan nan nan nan nan nan nan nan nan 3 3 7 3 0 0 nan 0 nan nan nan nan nan 6 17 21 21 31
nan nan nan nan nan nan nan nan nan nan nan nan nan nan nan nan nan nan nan nan nan nan nan nan nan nan nan nan nan nan nan nan nan nan nan nan nan nan nan nan nan nan nan nan nan nan nan nan nan nan nan nan nan nan nan nan nan nan nan nan nan nan nan nan nan nan nan nan 3 3 1 nan nan nan nan nan nan nan nan nan nan nan nan nan nan 10
nan nan nan nan nan nan nan nan nan nan nan nan nan nan nan nan nan nan nan nan nan nan nan nan nan nan nan nan nan nan nan nan nan nan nan nan nan nan nan nan nan nan nan nan nan nan nan nan nan nan nan nan nan nan nan nan nan nan 0 nan nan nan nan nan nan nan nan nan nan nan nan nan nan nan nan nan nan nan nan nan nan nan nan nan nan nan
nan nan nan nan nan nan nan nan nan nan nan nan nan nan nan nan nan nan nan nan nan nan nan nan nan nan nan nan nan nan nan nan nan nan nan nan nan nan nan nan nan nan nan nan nan nan nan nan nan nan nan nan nan nan nan nan nan 1 3 nan nan nan nan nan nan nan nan nan nan nan nan nan 0 0 nan nan nan nan nan nan nan nan nan nan nan nan
nan nan nan nan nan nan nan nan nan nan nan nan nan nan nan nan nan nan nan nan nan nan nan nan nan nan nan nan nan nan nan nan nan nan nan nan nan nan nan nan nan nan nan nan nan nan nan nan nan nan nan nan nan nan nan nan nan 0 1 nan nan nan nan nan nan nan nan nan nan nan 0 nan nan nan nan nan nan nan nan nan nan 1 2 nan nan nan
nan nan nan nan nan nan nan nan nan nan nan nan nan nan nan nan nan nan nan nan nan nan nan nan nan nan nan nan nan nan nan nan nan nan nan nan nan nan nan nan nan nan nan nan nan nan nan nan nan nan nan nan nan nan nan nan nan nan nan nan nan nan nan nan nan nan nan nan nan nan nan nan nan nan nan nan nan nan nan nan nan 6 4 nan nan nan
nan nan nan nan nan nan nan nan nan nan nan nan nan nan nan nan nan nan nan nan nan nan nan nan nan nan nan nan nan nan nan nan nan nan nan nan nan nan nan nan nan nan nan nan nan nan nan nan nan nan nan nan nan nan nan nan nan nan nan nan nan nan nan nan nan nan nan nan nan nan nan nan nan nan nan nan nan nan nan nan nan nan nan nan nan nan
nan nan nan nan nan nan nan nan nan nan nan nan nan nan nan nan nan nan nan nan nan nan nan nan nan nan nan nan nan nan nan nan nan nan nan nan 1 1 nan nan nan nan nan nan nan nan nan nan nan nan nan nan nan nan nan nan nan nan nan nan nan nan nan nan nan nan nan nan nan nan nan nan nan nan nan nan nan nan nan nan nan nan nan nan nan nan
nan nan nan nan nan nan nan nan nan nan nan nan nan nan nan nan nan nan nan nan nan nan nan nan nan nan nan nan nan nan nan nan nan nan nan nan nan nan nan nan nan nan nan nan nan nan nan nan nan nan nan nan nan nan nan nan nan nan nan nan nan nan nan nan nan nan nan nan nan nan nan nan nan nan nan nan nan nan nan nan nan nan nan nan nan nan
nan nan nan nan nan nan nan nan nan nan nan nan nan nan nan nan nan nan nan nan nan nan nan nan nan nan nan nan nan nan nan nan nan nan nan nan nan nan nan nan nan nan nan nan nan nan nan nan nan nan nan nan nan nan nan nan nan nan nan nan nan nan nan nan nan nan nan nan nan nan nan nan nan nan nan nan nan nan nan nan nan nan nan nan nan nan
nan nan nan nan nan nan nan nan nan nan nan nan nan nan nan nan nan nan nan nan nan nan 0 nan nan nan nan nan nan nan nan nan nan nan nan nan nan nan nan nan nan nan nan nan nan nan nan nan nan nan nan nan nan nan nan nan nan nan nan nan nan nan nan nan nan nan nan nan nan nan nan nan nan nan nan nan nan nan nan nan nan nan nan nan nan nan
nan nan nan nan nan nan nan nan nan nan nan nan nan nan nan nan 3 3 nan nan nan nan nan nan nan nan nan nan nan nan nan nan nan nan nan nan nan nan nan nan nan nan nan nan nan nan nan nan nan nan nan nan nan nan nan nan nan nan nan nan nan nan nan nan nan nan nan nan nan nan nan nan nan nan nan nan nan nan nan nan nan nan nan nan nan nan
nan nan nan nan nan nan nan nan nan nan nan nan nan nan nan nan nan nan nan nan nan nan nan nan nan nan nan nan nan nan nan nan nan nan nan nan nan nan nan nan nan nan nan nan nan nan nan nan nan nan nan nan nan nan nan nan nan nan nan nan nan nan nan nan nan nan nan nan nan nan nan nan nan nan nan nan nan nan nan nan nan nan nan nan nan nan
nan nan nan nan nan nan nan nan nan nan nan nan nan nan nan nan nan nan nan nan nan nan nan nan nan nan nan nan nan nan nan nan nan nan nan nan nan nan nan nan nan nan nan nan nan nan nan nan nan nan nan 0 nan nan nan nan nan nan nan nan nan nan nan nan nan nan nan nan nan nan nan nan nan nan nan nan nan nan nan nan nan nan nan nan nan nan
CIN
nan nan nan nan nan nan nan nan nan nan nan nan nan nan nan nan nan nan nan nan nan nan nan nan nan nan nan nan nan nan nan nan nan nan -0 -0 -0 -0 -0 -0 -0 -0 -0 -0 -0 -0 -0 -0 -0 -0 -0 -0 -0 -0 -0 -0 -0 -0 -0 -0 -0 -0 -0 -0 -0 -0 -0 -0 -0 -0 -0 -0 -0 -0 -0 -0 -0 -0 -0 -0 -0 -0 -0 -0 -0 -0
nan nan nan nan nan nan nan nan nan nan nan nan nan nan nan nan nan nan nan nan nan nan nan nan nan nan nan nan nan nan nan nan nan nan nan -0 -0 -0 -0 -0 -0 -0 -0 -0 -0 -0 -0 -0 -0 -0 -0 -0 -0 -0 -0 -0 -0 -0 -0 -0 -0 -0 -0 -0 -0 -0 -0 -0 -0 -0 -0 -0 -0 -0 -0 -0 -0 -0 -0 -0 -0 -0 -0 -0 -0 -0
nan nan nan nan nan nan nan nan nan nan nan nan nan nan nan nan nan nan nan nan nan nan nan nan nan nan nan nan nan nan nan nan nan nan nan nan -0 -0 -0 -0 -0 -0 -0 -0 -0 -0 -0 -0 -0 -0 -0 -0 -0 -0 -0 -0 -0 -0 -0 -0 -0 -0 -0 -0 -0 -0 -0 -0 -0 -0 -0 -0 -0 -0 -0 -0 -0 -0 -0 -0 -0 -0 -0 -0 -0 -0
nan nan nan nan nan nan nan nan nan nan nan nan nan nan nan nan nan nan nan nan nan nan nan nan nan nan nan nan nan nan nan nan nan nan nan nan nan nan -0 -0 -0 -0 -0 -0 -0 -0 -0 -0 -0 -0 -0 -0 -0 -0 -0 -0 -0 -0 -0 -0 -0 -0 -0 -0 -0 -0 -0 -0 -0 -0 -0 -0 -0 -0 -0 -0 -0 -0 -0 -0 -0 -0 -0 -0 -0 -0
nan nan nan nan nan nan nan nan nan nan nan nan nan nan nan nan nan nan nan nan nan nan nan nan nan nan nan nan nan nan nan nan nan nan nan nan nan nan nan -0 -0 -0 -0 -0 -0 -0 -0 -0 -0 -0 -0 -0 -0 -0 -0 -0 -0 -0 -0 -0 -0 -0 -0 -0 -0 -0 -0 -0 -0 -0 -0 -0 -0 -0 -0 -0 -0 -0 -0 -0 -0 -0 -0 -0 -0 -0
nan nan nan nan nan nan nan nan nan nan nan nan nan nan nan nan nan nan nan nan nan nan nan nan nan nan nan nan nan nan nan nan nan nan nan nan nan nan nan nan nan -0 -0 -0 -0 -0 -0 -0 -0 -0 -0 -0 -0 -0 -0 -0 -0 -0 -0 -0 -0 -0 -0 -0 -0 -0 -0 -0 -0 -0 -0 -0 -0 -0 -0 -0 -0 -0 -0 -0 -0 -0 -0 -0 -0 -0
nan nan nan nan nan nan nan nan nan nan nan nan nan nan nan nan nan nan nan nan nan nan nan nan nan nan nan nan nan nan nan nan nan nan nan nan nan nan nan nan nan nan nan nan nan nan -0 -0 -0 -0 -0 -0 -0 -0 -0 -0 -0 -0 -0 -0 -0 -0 -0 -0 -0 -0 -0 -0 -0 -0 -0 -0 -0 -0 -0 -0 -0 -0 -0 -0 -0 -0 -0 -0 -0 -0
nan nan nan nan nan nan nan nan nan nan nan nan nan nan nan nan nan nan nan nan nan nan nan nan nan nan nan nan nan nan nan nan nan nan nan nan nan nan nan nan nan nan nan nan nan nan nan nan nan nan -0 -0 -0 -0 -0 -0 -0 -0 -0 -0 -0 -0 -0 -0 -0 -0 -0 -0 -0 -0 -0 -0 -0 -0 -0 -0 -0 -0 -0 -0 -0 -0 -0 -0 -0 -0
nan nan nan nan nan nan nan nan nan nan nan nan nan nan nan nan nan nan nan nan nan nan nan nan nan nan nan nan nan nan nan nan nan nan nan nan nan nan nan nan nan nan nan nan nan nan nan nan nan nan nan -0 -0 -0 -0 -0 -0 -0 -0 -0 -0 -0 -0 -0 -0 -0 -0 -0 -0 -0 -0 -0 -0 -0 -0 -0 -0 -0 -0 -0 -0 -0 -0 -0 -0 -0
nan nan nan nan nan nan nan nan nan nan nan nan nan nan nan nan nan nan nan nan nan nan nan nan nan nan nan nan nan nan nan nan nan nan nan nan nan nan nan nan nan nan nan nan nan nan nan nan nan nan nan nan nan nan nan -0 -0 -0 -0 -0 -0 -0 -0 -0 -0 -0 -0 -0 -0 -0 -0 -0 -0 -0 -0 -0 -0 -0 -0 -0 -0 -0 -0 -0 -0 -0
nan nan nan nan nan nan nan nan nan nan nan nan nan nan nan nan nan nan nan nan nan nan nan nan nan nan nan nan nan nan nan nan nan nan nan nan nan nan nan nan nan nan nan nan nan nan nan nan nan nan nan nan nan nan nan -0 -0 -0 -0 -0 -0 -0 -0 -0 -0 -0 -0 -0 -0 -0 -0 -0 -0 -0 -0 -0 -0 -0 -0 -0 -0 -0 -0 -0 -0 -0
nan nan nan nan nan nan nan nan nan nan nan nan nan nan nan nan nan nan nan nan nan nan nan nan nan nan nan nan nan nan nan nan nan nan nan nan nan nan nan nan nan nan nan nan nan nan nan nan nan nan nan nan nan nan -0 -0 -0 -0 -0 -0 -0 -0 -0 -0 -0 -0 -0 -0 -0 -0 -0 -0 -0 -0 -0 -0 -0 -0 -0 -0 -0 -0 -0 -0 -0 -0
nan nan nan nan nan nan nan nan nan nan nan nan nan nan nan nan nan nan nan nan nan nan nan nan nan nan nan nan nan nan nan nan nan nan nan nan nan nan nan nan nan nan nan nan nan nan nan nan nan nan nan nan nan nan -0 -0 -0 -0 -0 -0 -0 -0 -0 -0 -0 -0 -0 -0 -0 -0 -0 -0 -0 -0 -0 -0 -0 -0 -0 -0 -0 -0 -0 -0 -0 -0
nan nan nan nan nan nan nan nan nan nan nan nan nan nan nan nan nan nan nan nan nan nan nan nan nan nan nan nan nan nan nan nan nan nan nan nan nan nan nan nan nan nan nan nan nan nan nan nan nan nan nan nan nan nan -0 -0 -0 -0 -0 -0 -0 -0 -0 -0 -0 -0 -0 -0 -0 -0 -0 -0 -0 -0 -0 -0 -0 -0 -0 -0 -0 -0 -0 -0 -0 -0
nan nan nan nan nan nan nan nan nan nan nan nan nan nan nan nan nan nan nan nan nan nan nan nan nan nan nan nan nan nan nan nan nan nan nan nan nan nan nan nan nan nan nan nan nan nan nan nan nan nan nan nan nan nan -0 -0 -0 -0 -0 -0 -0 -0 -0 -0 -0 -0 -0 -0 -0 -0 -0 -0 -0 -0 -0 -0 -0 -0 -0 -0 -0 -0 -0 -0 -0 -0
nan nan nan nan nan nan nan nan nan nan nan nan nan nan nan nan nan nan nan nan nan nan nan nan nan nan nan nan nan nan nan nan nan nan nan nan nan nan nan nan nan nan nan nan nan nan nan nan nan nan nan nan nan nan -0 -0 -0 -0 -0 -0 -0 -0 -0 -0 -0 -0 -0 -0 -0 -0 -0 -0 -0 -0 -0 -0 -0 -0 -0 -0 -0 -0 -0 -0 -0 -0
nan nan nan nan nan nan nan nan nan nan nan nan nan nan nan nan nan nan nan nan nan nan nan nan nan nan nan nan nan nan nan nan nan nan nan nan nan nan nan nan nan nan nan nan nan nan nan nan nan nan nan nan nan nan -0 -0 -0 -0 -0 -0 -0 -0 -0 -0 -0 -0 -0 -0 -0 -0 -0 -0 -0 -0 -0 -0 -0 -0 -0 -0 -0 -0 -0 -0 -0 -0
nan nan nan nan nan nan nan nan nan nan nan nan nan nan nan nan nan nan nan nan nan nan nan nan nan nan nan nan nan nan nan nan nan nan nan nan nan nan nan nan nan nan nan nan nan nan nan nan nan nan nan nan nan nan -0 -0 -0 -0 -0 -0 -0 -0 -0 -0 -0 -0 -0 -0 -0 -0 -0 -0 -0 -0 -0 -0 -0 -0 -0 -0 -0 -0 -0 -0 -0 -0
nan nan nan nan nan nan nan nan nan nan nan nan nan nan nan nan nan nan nan nan nan nan nan nan nan nan nan nan nan nan nan nan nan nan nan nan nan nan nan nan nan nan nan nan nan nan nan nan nan nan nan nan nan nan -0 -0 -0 -0 -0 -0 -0 -0 -0 -0 -0 -0 -0 -0 -0 -0 -0 -0 -0 -0 -0 -0 -0 -0 -0 -0 -0 -0 -0 -0 -0 -0
nan nan nan nan nan nan nan nan nan nan nan nan nan nan nan nan nan nan nan nan nan nan nan nan nan nan nan nan nan nan nan nan nan nan nan nan nan nan nan nan nan nan nan nan nan nan nan nan nan nan nan nan nan nan -0 -0 -0 -0 -0 -0 -0 -0 -0 -0 -0 -0 -0 -0 -0 -0 -0 -0 -0 -0 -0 -0 -0 -0 -0 -0 -0 -0 -0 -0 -0 -0
nan nan nan nan nan nan nan nan nan nan nan nan nan nan nan nan nan nan nan nan nan nan nan nan nan nan nan nan nan nan nan nan nan nan nan nan nan nan nan nan nan nan nan nan nan nan nan nan nan nan nan nan nan nan -0 -0 -0 -0 -0 -0 -0 -0 -0 -0 -0 -0 -0 -0 -0 -0 -0 -0 -0 -0 -0 -0 -0 -0 -0 -0 -0 -0 -0 -0 -0 -0
nan nan nan nan nan nan nan nan nan nan nan nan nan nan nan nan nan nan nan nan nan nan nan nan nan nan nan nan nan nan nan nan nan nan nan nan nan nan nan nan nan nan nan nan nan nan nan nan nan nan nan nan nan nan -0 -0 -0 -0 -0 -0 -0 -0 -0 -0 -0 -0 -0 -0 -0 -0 -0 -0 -0 -0 -0 -0 -0 -0 -0 -0 -0 -0 -0 -0 -0 -0
nan nan nan nan nan nan nan nan nan nan nan nan nan nan nan nan nan nan nan nan nan nan nan nan nan nan nan nan nan nan nan nan nan nan nan nan nan nan nan nan nan nan nan nan nan nan nan nan nan nan nan nan nan nan -0 -0 -0 -0 -0 -0 -0 -0 -0 -0 -0 -0 -0 -0 -0 -0 -0 -0 -0 -0 -0 -0 -0 -0 -0 -0 -0 -0 -0 -0 -0 -0
nan nan nan nan nan nan nan nan nan nan nan nan nan nan nan nan nan nan nan nan nan nan nan nan nan nan nan nan nan nan nan nan nan nan nan nan nan nan nan nan nan nan nan nan nan nan nan nan nan nan nan nan nan nan -0 -0 -0 -0 -0 -0 -0 -0 -0 -0 -0 -0 -0 -0 -0 -0 -0 -0 -0 -0 -0 -0 -0 -0 -0 -0 -0 -0 -0 -0 -0 -0
nan nan nan nan nan nan nan nan nan nan nan nan nan nan nan nan nan nan nan nan nan nan nan nan nan nan nan nan nan nan nan nan nan nan nan nan nan nan nan nan nan nan nan nan nan nan nan nan nan nan nan nan nan nan nan -0 -0 -0 -0 -0 -0 -0 -0 -0 -0 -0 -0 -0 -0 -0 -0 -0 -0 -0 -0 -0 -0 -0 -0 -0 -0 -0 -0 -0 -0 -0
nan nan nan nan nan -0 -3 -0 -0 -0 -23 nan nan nan nan nan nan nan nan nan nan nan nan nan nan nan nan nan nan nan nan nan nan nan nan nan nan nan nan nan nan nan nan nan nan nan nan nan nan nan nan nan nan nan nan -0 -0 -0 -0 -0 -0 -0 -0 -0 -0 -0 -0 -0 -0 -0 -0 -0 -0 -0 -0 -0 -0 -0 -0 -0 -0 -0 -0 -0 -0 -0
-0 -0 -0 -0 -0 -0 -0 -0 -0 -0 -0 -0 -13 -13 nan nan nan nan nan nan nan nan nan nan nan nan nan nan nan nan nan nan nan nan nan nan nan nan nan nan nan nan nan nan nan nan nan nan nan nan nan nan nan nan nan -0 -0 -0 -0 -0 -0 -0 -0 -0 -0 -0 -0 -0 -0 -0 -0 -0 -0 -0 -0 -0 -0 -0 -0 -0 -0 -0 -0 -0 -0 -0
-0 -0 -0 -0 -0 -0 -0 -0 -0 -0 -0 -0 -0 -0 nan nan nan nan nan nan nan nan nan nan nan nan nan nan nan nan nan nan nan nan nan nan nan nan nan nan nan nan nan nan nan nan nan nan nan nan nan nan nan nan nan -0 -0 -0 -0 -0 -0 -0 -0 -0 -0 -0 -0 -0 -0 -0 -0 -0 -0 -0 -0 -0 -0 -0 -0 -0 -0 -0 -0 -0 -0 -21
-0 -0 -0 -0 -0 -0 -0 nan -0 -0 -0 -0 -0 -0 nan nan nan nan nan nan nan nan nan nan nan nan nan nan nan nan nan nan nan nan nan nan nan nan nan nan nan nan nan nan nan nan nan nan nan nan nan nan nan nan nan nan nan nan -0 -0 -0 -0 -0 -0 -0 -0 -0 -0 -0 -0 -0 -0 -0 -0 -0 -0 -0 -0 -0 -0 -0 -0 -0 -0 -0 -11
nan nan nan nan nan nan nan nan nan nan -0 -0 -0 -0 nan nan nan nan nan nan nan nan nan nan nan nan nan nan nan nan nan nan nan nan nan nan nan nan nan nan nan nan nan nan nan nan nan nan nan nan nan nan nan nan nan nan nan nan nan nan nan -0 -0 -0 -0 -0 -0 -0 -0 -0 -0 -0 -0 -0 -0 -0 -0 -0 -0 -0 -0 -0 -1 -8 -8 -19
nan nan nan nan nan nan nan nan nan nan nan -0 -0 -0 nan nan nan nan nan nan nan nan nan nan nan nan nan nan nan nan nan nan nan nan nan nan nan nan nan nan nan nan nan nan nan nan nan nan nan nan nan nan nan nan nan nan nan nan nan nan nan nan -0 -0 -0 -0 -0 -0 -0 -0 -0 -0 -0 -0 -0 -0 -0 -0 -0 -0 -0 -0 -3 -9 -9 -19
nan nan nan nan nan nan nan nan nan nan nan nan nan nan nan nan nan nan nan nan nan nan nan nan nan nan nan nan nan nan nan nan nan nan nan nan nan nan nan nan nan nan nan nan nan nan nan nan nan nan nan nan nan nan nan nan nan nan nan nan nan nan nan -0 -0 -0 -0 -0 -0 -0 -0 -0 -0 -0 -0 -0 -0 -0 -0 -0 -0 -0 -0 -7 -7 -4
nan nan nan nan nan nan nan nan nan nan nan nan nan nan nan nan nan nan nan nan nan nan nan nan nan nan nan nan nan nan nan nan nan nan nan nan nan nan nan nan nan nan nan nan nan nan nan nan nan nan nan nan nan nan nan nan nan nan nan nan nan nan nan nan nan nan nan -0 -0 -0 -0 -0 -0 -0 -0 -0 -0 -0 -0 -0 -0 -0 -0 -7 -7 -3
nan nan nan nan nan nan nan nan nan nan nan nan nan nan nan nan nan nan nan nan nan nan nan nan nan nan nan nan nan nan nan nan nan nan nan nan nan nan nan nan nan nan nan nan nan nan nan nan nan nan nan nan nan nan nan nan nan nan nan nan nan nan nan nan nan nan nan nan nan nan nan -1 -0 -0 -0 -0 -0 -0 -0 -0 -0 -0 -0 -0 -0 -2
nan nan nan nan nan nan nan nan nan nan nan nan nan nan nan nan nan nan nan nan nan nan nan nan nan nan nan nan nan nan nan nan nan nan nan nan nan nan nan nan nan nan nan nan nan nan nan nan nan -0 nan nan nan nan nan nan nan nan nan nan nan nan nan nan nan nan nan nan nan nan nan nan -0 -0 -0 -0 -0 -0 -0 -0 -0 -0 -0 -0 -0 -0
nan nan nan nan nan nan nan nan nan nan nan nan nan nan nan nan nan nan nan nan nan nan nan nan nan nan nan nan nan nan nan nan nan nan nan nan nan nan nan nan nan nan nan nan nan nan nan nan nan nan nan nan nan nan nan nan nan nan nan nan nan nan nan nan nan nan nan nan nan nan nan -4 -0 -0 -0 -0 -0 -0 -0 -0 -0 -0 -0 -0 -0 -0
nan nan nan nan nan nan nan nan nan nan nan nan nan nan nan nan nan nan nan nan nan nan nan nan nan nan nan nan nan nan nan nan nan nan nan nan nan nan nan nan nan nan nan nan nan nan nan nan nan nan nan nan nan nan nan nan nan nan nan nan nan nan nan nan nan nan nan nan nan nan -1 -0 -0 -0 -0 -0 -0 -0 -0 -0 -0 -0 -0 -0 -0 -0
nan nan nan nan nan nan nan nan nan nan nan nan nan nan nan nan nan nan nan nan nan nan nan nan nan nan nan nan nan nan nan nan nan nan nan nan nan nan nan nan nan nan nan nan nan nan nan nan nan nan nan nan nan nan nan nan nan nan nan nan nan nan nan nan nan nan nan nan -0 -0 -0 -0 -8 -8 nan -1 nan nan nan nan nan -0 -0 -0 -0 -0
nan nan nan nan nan nan nan nan nan nan nan nan nan nan nan nan nan nan nan nan nan nan nan nan nan nan nan nan nan nan nan nan nan nan nan nan nan nan nan nan nan nan nan nan nan nan nan nan nan nan nan nan nan nan nan nan nan nan nan nan nan nan nan nan nan nan nan nan -0 -0 -0 nan nan nan nan nan nan nan nan nan nan nan nan nan nan -0
nan nan nan nan nan nan nan nan nan nan nan nan nan nan nan nan nan nan nan nan nan nan nan nan nan nan nan nan nan nan nan nan nan nan nan nan nan nan nan nan nan nan nan nan nan nan nan nan nan nan nan nan nan nan nan nan nan nan -0 nan nan nan nan nan nan nan nan nan nan nan nan nan nan nan nan nan nan nan nan nan nan nan nan nan nan nan
nan nan nan nan nan nan nan nan nan nan nan nan nan nan nan nan nan nan nan nan nan nan nan nan nan nan nan nan nan nan nan nan nan nan nan nan nan nan nan nan nan nan nan nan nan nan nan nan nan nan nan nan nan nan nan nan nan -0 -0 nan nan nan nan nan nan nan nan nan nan nan nan nan -1 -1 nan nan nan nan nan nan nan nan nan nan nan nan
nan nan nan nan nan nan nan nan nan nan nan nan nan nan nan nan nan nan nan nan nan nan nan nan nan nan nan nan nan nan nan nan nan nan nan nan nan nan nan nan nan nan nan nan nan nan nan nan nan nan nan nan nan nan nan nan nan -0 -0 nan nan nan nan nan nan nan nan nan nan nan -0 nan nan nan nan nan nan nan nan nan nan -0 -0 nan nan nan
nan nan nan nan nan nan nan nan nan nan nan nan nan nan nan nan nan nan nan nan nan nan nan nan nan nan nan nan nan nan nan nan nan nan nan nan nan nan nan nan nan nan nan nan nan nan nan nan nan nan nan nan nan nan nan nan nan nan nan nan nan nan nan nan nan nan nan nan nan nan nan nan nan nan nan nan nan nan nan nan nan -0 -0 nan nan nan
nan nan nan nan nan nan nan nan nan nan nan nan nan nan nan nan nan nan nan nan nan nan nan nan nan nan nan nan nan nan nan nan nan nan nan nan nan nan nan nan nan nan nan nan nan nan nan nan nan nan nan nan nan nan nan nan nan nan nan nan nan nan nan nan nan nan nan nan nan nan nan nan nan nan nan nan nan nan nan nan nan nan nan nan nan nan
nan nan nan nan nan nan nan nan nan nan nan nan nan nan nan nan nan nan nan nan nan nan nan nan nan nan nan nan nan nan nan nan nan nan nan nan -0 -0 nan nan nan nan nan nan nan nan nan nan nan nan nan nan nan nan nan nan nan nan nan nan nan nan nan nan nan nan nan nan nan nan nan nan nan nan nan nan nan nan nan nan nan nan nan nan nan nan
nan nan nan nan nan nan nan nan nan nan nan nan nan nan nan nan nan nan nan nan nan nan nan nan nan nan nan nan nan nan nan nan nan nan nan nan nan nan nan nan nan nan nan nan nan nan nan nan nan nan nan nan nan nan nan nan nan nan nan nan nan nan nan nan nan nan nan nan nan nan nan nan nan nan nan nan nan nan nan nan nan nan nan nan nan nan
nan nan nan nan nan nan nan nan nan nan nan nan nan nan nan nan nan nan nan nan nan nan nan nan nan nan nan nan nan nan nan nan nan nan nan nan nan nan nan nan nan nan nan nan nan nan nan nan nan nan nan nan nan nan nan nan nan nan nan nan nan nan nan nan nan nan nan nan nan nan nan nan nan nan nan nan nan nan nan nan nan nan nan nan nan nan
nan nan nan nan nan nan nan nan nan nan nan nan nan nan nan nan nan nan nan nan nan nan -0 nan nan nan nan nan nan nan nan nan nan nan nan nan nan nan nan nan nan nan nan nan nan nan nan nan nan nan nan nan nan nan nan nan nan nan nan nan nan nan nan nan nan nan nan nan nan nan nan nan nan nan nan nan nan nan nan nan nan nan nan nan nan nan
nan nan nan nan nan nan nan nan nan nan nan nan nan nan nan nan -0 -0 nan nan nan nan nan nan nan nan nan nan nan nan nan nan nan nan nan nan nan nan nan nan nan nan nan nan nan nan nan nan nan nan nan nan nan nan nan nan nan nan nan nan nan nan nan nan nan nan nan nan nan nan nan nan nan nan nan nan nan nan nan nan nan nan nan nan nan nan
nan nan nan nan nan nan nan nan nan nan nan nan nan nan nan nan nan nan nan nan nan nan nan nan nan nan nan nan nan nan nan nan nan nan nan nan nan nan nan nan nan nan nan nan nan nan nan nan nan nan nan nan nan nan nan nan nan nan nan nan nan nan nan nan nan nan nan nan nan nan nan nan nan nan nan nan nan nan nan nan nan nan nan nan nan nan
nan nan nan nan nan nan nan nan nan nan nan nan nan nan nan nan nan nan nan nan nan nan nan nan nan nan nan nan nan nan nan nan nan nan nan nan nan nan nan nan nan nan nan nan nan nan nan nan nan nan nan -1 nan nan nan nan nan nan nan nan nan nan nan nan nan nan nan nan nan nan nan nan nan nan nan nan nan nan nan nan nan nan nan nan nan nan
Wind_Speed
1 1 1 2 1 1 2 2 2 2 2 3 3 3 3 4 4 4 5 4 4 4 4 5 5 5 7 11 13 15 15 14 14 14 14 14 14 15 15 15 16 16 16 16 16 16 16 16 16 16 16 16 16 17 17 17 16 16 16 16 16 16 17 17 17 18 18 18 18 18 18 18 18 19 19 19 19 19 19 19 20 20 20 21 21 21
2 2 2 3 2 2 1 2 2 1 2 2 2 3 3 3 3 3 4 4 4 4 4 4 5 5 5 8 11 14 15 15 14 14 15 15 15 15 15 16 16 16 16 16 16 16 16 16 16 16 17 17 17 17 17 17 17 17 17 17 17 17 17 17 17 17 18 18 18 18 18 18 19 19 19 19 19 19 19 19 20 20 21 21 21 21
2 2 2 2 2 2 1 2 2 1 1 1 2 2 2 2 3 3 3 4 4 4 4 4 4 5 5 7 10 14 15 15 15 15 15 15 15 16 16 16 16 16 16 16 16 16 16 16 17 17 17 17 17 17 17 17 17 17 17 17 17 17 17 17 17 17 18 18 18 18 19 19 19 19 19 19 19 19 19 19 20 20 21 21 21 21
1 1 1 1 2 2 1 2 2 2 2 2 2 2 2 2 2 3 3 3 4 4 4 3 4 4 4 5 8 12 14 15 15 15 16 16 16 16 16 17 17 16 16 16 16 16 17 17 17 17 17 17 17 17 17 17 17 17 17 17 17 17 17 17 17 18 18 18 18 18 19 19 19 19 19 19 19 19 19 19 20 20 21 21 21 21
1 1 1 1 1 1 2 2 2 2 2 2 2 2 1 1 2 3 3 3 3 4 4 4 4 4 4 4 7 11 14 15 16 16 16 16 17 17 17 17 17 17 17 17 17 17 17 17 17 18 18 17 17 17 17 17 17 17 17 17 17 17 18 18 18 18 18 18 18 18 18 19 19 19 19 19 19 19 19 20 20 21 21 21 21 21
1 1 1 1 0 1 2 2 2 2 1 1 2 1 1 1 2 2 3 3 4 4 4 3 3 4 4 5 7 11 14 15 15 16 16 17 17 17 17 17 17 17 17 17 17 17 17 18 18 18 18 18 18 18 18 18 18 18 18 18 18 18 18 18 18 18 18 18 18 18 18 19 19 19 19 19 19 19 19 20 20 21 21 21 21 21
1 1 1 1 0 1 1 1 2 2 1 1 2 2 1 1 2 2 2 3 3 3 4 4 4 3 3 5 7 10 11 12 13 14 15 16 17 17 17 17 17 17 17 17 17 17 18 18 18 18 18 18 18 18 18 18 18 18 18 18 18 18 18 18 18 18 18 18 18 18 18 18 19 19 19 19 19 19 19 20 20 21 21 21 21 21
0 1 2 1 1 1 1 1 2 2 1 1 1 2 2 2 2 2 2 2 2 3 3 4 4 4 4 4 5 7 7 8 8 9 11 13 14 15 16 17 17 17 17 17 17 18 18 18 18 19 18 18 18 18 18 18 18 18 18 18 18 18 18 18 18 18 18 18 18 18 18 18 18 18 18 18 18 19 19 20 20 20 21 21 21 21
1 1 1 1 1 1 1 2 2 2 1 1 1 1 2 3 3 3 2 2 2 2 3 4 5 5 5 4 4 4 5 5 5 6 8 8 9 11 14 15 16 16 17 17 18 18 18 19 19 19 18 18 18 18 18 18 18 18 18 18 18 18 18 18 18 18 18 18 18 18 18 18 18 18 18 18 19 19 19 19 20 20 20 20 21 21
1 1 0 1 1 0 0 1 2 2 1 1 0 1 1 3 4 4 5 4 3 3 2 3 4 5 6 5 4 3 4 5 7 9 10 10 11 12 13 13 13 14 16 17 17 18 18 18 18 18 18 18 18 18 18 18 18 18 18 18 18 18 18 18 18 18 18 18 18 19 19 19 19 19 19 19 19 19 19 19 19 19 20 20 20 20
1 0 0 1 1 1 0 1 2 2 2 1 1 1 1 2 3 4 6 6 5 5 4 3 4 4 5 5 5 4 4 4 5 7 9 11 12 13 13 13 13 13 15 16 16 17 17 18 18 18 18 18 18 18 18 18 18 18 18 18 18 18 18 18 18 18 19 19 19 19 19 19 19 19 19 19 19 19 19 19 19 19 19 19 19 20
0 0 0 0 1 1 1 2 2 2 2 2 2 3 3 2 2 3 4 5 6 6 5 4 4 3 4 4 4 4 4 4 5 5 5 6 7 8 9 9 10 10 11 12 13 14 16 17 17 17 17 17 18 18 18 17 18 18 18 18 18 18 18 18 18 19 19 19 19 19 19 19 19 19 19 19 19 19 18 18 19 19 19 19 19 19
0 0 1 1 1 1 2 2 2 2 2 2 2 3 3 3 2 2 2 3 4 5 5 5 5 4 3 3 3 3 4 5 5 5 5 4 4 5 5 5 6 6 6 6 7 9 12 14 15 15 16 17 17 18 18 18 18 18 18 18 18 18 18 18 19 19 19 19 19 19 19 19 19 19 18 18 18 18 18 18 18 18 19 19 19 19
1 1 1 1 1 1 1 1 1 2 2 1 1 1 2 2 2 2 2 3 3 4 4 5 5 4 3 2 2 2 3 5 6 6 5 5 4 4 4 5 5 5 4 4 5 6 10 11 10 11 14 15 16 17 17 17 18 19 18 18 18 18 18 19 19 19 19 19 19 19 19 19 18 18 18 18 18 18 18 18 18 18 19 19 19 19
1 1 1 1 1 1 1 1 1 1 1 1 1 1 1 2 2 3 3 4 4 4 3 4 4 4 3 2 1 1 3 5 6 6 7 6 5 4 4 4 5 5 4 5 5 6 8 8 7 7 9 12 14 15 16 17 18 19 19 19 19 19 19 19 19 19 19 19 19 19 18 18 18 18 18 18 19 19 18 18 18 18 18 18 19 19
1 1 1 1 0 1 1 1 1 1 1 1 1 1 1 2 2 3 3 3 4 4 4 5 5 4 3 2 1 1 4 5 6 6 7 7 5 4 3 4 5 5 5 5 5 5 6 5 6 6 8 12 15 18 19 18 18 19 19 19 19 19 19 19 19 19 19 19 19 18 18 18 18 18 18 18 18 19 18 18 18 18 18 18 18 18
1 1 1 1 1 1 1 0 1 1 1 1 1 1 0 1 1 2 2 3 3 3 3 3 4 4 4 3 2 2 4 5 6 6 7 7 6 5 3 4 5 6 5 5 5 5 5 5 6 6 8 13 17 19 19 19 19 19 19 19 19 19 19 19 19 19 19 19 19 19 19 18 18 18 18 18 18 18 18 18 18 18 18 18 18 18
1 1 1 1 1 1 0 0 0 1 1 1 1 1 1 1 1 1 1 2 2 3 3 3 3 3 4 4 4 3 4 5 5 6 7 7 6 5 3 3 4 5 6 5 5 4 4 5 6 7 10 16 18 19 20 19 19 19 19 19 19 19 19 19 19 19 19 19 19 19 19 19 19 19 19 19 19 18 18 18 18 18 18 18 18 18
1 1 1 1 1 1 0 0 1 1 1 1 1 1 1 1 1 1 1 1 2 2 2 3 3 3 3 4 5 5 4 4 4 5 6 7 6 4 3 4 5 5 6 6 5 5 4 5 7 11 15 18 19 20 19 19 19 19 19 20 20 20 20 19 19 19 19 19 19 19 19 19 19 19 19 19 19 19 18 18 18 18 18 18 18 18
2 2 2 2 1 1 0 1 1 2 2 1 1 0 1 1 1 1 1 1 1 1 2 2 3 3 3 4 5 5 4 4 3 4 5 6 6 5 3 4 5 6 6 6 5 4 4 5 7 10 15 17 18 19 19 19 19 20 20 20 20 20 20 20 20 20 19 19 19 19 19 19 19 19 19 19 19 19 19 18 18 18 18 18 18 18
3 2 2 2 1 1 0 1 2 2 2 1 1 0 1 1 1 2 2 2 2 2 2 2 3 3 3 4 5 6 4 3 3 3 4 4 4 4 3 3 4 6 7 6 5 4 5 5 6 7 11 15 17 18 19 19 19 20 20 20 20 20 20 20 20 20 20 20 20 20 20 20 19 19 19 19 19 19 19 19 18 18 18 18 18 17
3 2 2 2 2 2 1 2 3 3 2 1 1 1 1 2 2 2 2 2 2 3 3 3 4 4 4 5 6 5 4 2 2 2 3 4 4 4 3 3 4 5 6 6 5 5 5 5 5 7 10 15 17 18 19 19 19 19 20 20 21 21 21 21 21 20 20 20 20 20 20 20 20 20 19 19 19 19 19 18 18 18 18 18 17 17
3 2 2 2 2 2 2 3 3 3 2 2 1 1 1 1 2 2 2 2 2 3 3 4 4 4 4 4 5 4 3 2 1 1 2 4 5 4 3 3 4 5 6 5 5 6 6 6 6 7 10 14 16 17 18 18 19 19 20 21 21 21 21 21 21 21 21 21 21 21 21 20 20 20 20 20 19 19 19 18 18 18 18 17 17 17
3 2 2 3 3 3 2 2 2 2 1 1 1 1 1 1 1 2 2 2 2 3 3 4 4 4 3 4 4 4 3 1 1 1 1 3 4 5 4 4 4 5 6 6 6 6 7 6 6 6 7 11 14 15 16 17 18 19 20 20 21 21 21 21 21 21 21 21 21 21 21 21 20 20 20 20 19 19 19 18 18 18 17 17 17 16
3 3 2 3 3 3 2 1 1 1 1 1 1 1 1 1 1 1 1 1 1 2 3 4 4 4 3 3 3 3 2 1 1 2 1 3 4 5 4 3 4 5 6 6 6 6 6 6 6 5 5 7 11 13 15 16 17 19 20 20 20 21 21 21 21 21 21 21 21 21 21 21 21 20 20 20 20 19 19 18 18 18 17 16 16 15
4 3 2 1 1 2 4 5 6 6 4 2 1 2 1 0 1 2 2 2 2 3 4 4 4 4 4 3 3 3 3 1 1 2 1 2 4 5 4 3 3 5 7 6 6 6 6 7 6 5 4 5 7 11 13 15 17 18 19 20 20 20 20 21 21 21 21 21 21 21 21 21 21 20 20 20 19 19 18 18 18 17 17 15 14 13
5 5 5 5 6 7 8 8 9 9 9 8 5 2 2 2 2 3 4 3 4 4 5 4 4 4 4 3 3 3 3 2 1 1 1 2 4 5 4 3 4 5 7 6 6 6 7 7 6 5 4 4 5 7 12 14 16 18 19 19 19 19 20 20 21 21 21 21 21 21 21 21 21 20 20 20 19 19 18 18 18 17 15 13 11 10
8 8 8 9 9 9 9 9 9 9 9 9 9 8 5 4 3 3 4 3 3 4 4 5 5 5 4 4 4 4 3 2 2 1 1 2 4 5 4 4 4 5 6 6 6 6 7 7 6 5 4 4 4 5 9 13 15 16 17 18 18 19 19 20 20 21 21 21 21 21 21 21 21 20 20 20 19 19 18 18 17 16 13 9 6 4
10 10 10 10 10 10 10 9 9 9 10 10 10 9 6 4 2 2 3 3 3 3 4 4 5 5 4 4 4 4 3 2 2 2 1 3 4 4 4 4 5 5 6 6 6 5 4 4 4 3 3 4 4 5 7 9 11 12 13 15 16 17 18 19 20 21 21 21 21 21 21 21 21 20 20 19 19 18 18 18 16 14 10 7 5 4
7 8 8 9 9 8 8 7 8 9 10 10 10 9 6 2 1 1 2 1 2 2 3 4 4 4 4 5 4 4 3 2 2 2 2 4 4 5 5 5 5 5 6 6 6 5 4 3 2 2 2 4 5 5 5 6 6 7 7 10 12 13 16 18 19 20 20 21 21 21 21 21 20 20 20 19 18 18 18 18 16 12 7 5 4 4
4 5 5 5 5 5 5 5 5 6 8 9 9 8 6 3 1 1 1 1 1 1 2 3 4 4 4 4 4 3 3 3 3 3 3 4 4 5 5 6 6 5 5 5 6 6 6 4 2 2 2 4 5 5 5 5 5 4 4 5 7 9 14 17 18 18 19 19 20 20 21 20 20 20 19 19 18 18 17 18 15 11 6 5 5 4
3 4 3 3 3 4 4 4 4 4 5 5 5 5 5 4 3 2 1 1 1 2 2 3 3 4 3 3 3 3 3 3 4 4 4 4 4 4 4 5 6 6 4 4 4 5 6 6 5 4 4 4 5 5 5 5 5 4 4 4 5 7 12 14 15 15 15 17 18 19 19 19 19 19 18 18 17 17 17 18 16 12 7 6 5 5
3 3 3 3 4 4 4 4 4 4 4 4 4 4 4 4 4 3 2 1 2 2 2 3 3 4 4 3 4 4 4 4 5 6 6 4 4 4 4 5 5 6 5 4 4 5 5 6 6 6 6 5 5 4 4 5 5 4 4 4 5 6 10 11 11 11 11 13 14 15 16 17 17 17 17 16 16 17 17 18 17 15 10 7 5 5
3 4 4 4 4 4 4 4 4 4 4 4 4 4 4 4 4 4 4 2 2 2 3 3 3 4 4 3 4 4 4 4 5 7 7 4 3 4 4 4 5 5 5 5 5 5 5 6 7 7 7 6 5 4 4 4 4 4 3 4 5 5 7 8 8 8 9 9 9 10 11 12 13 13 14 14 15 16 17 18 18 17 15 10 7 6
4 4 4 4 4 4 4 4 4 4 4 4 4 4 4 4 4 4 4 4 3 3 3 3 3 3 3 3 4 4 5 4 6 8 8 5 3 3 4 4 4 4 5 6 6 6 5 7 8 8 8 7 6 4 3 3 4 4 4 5 5 5 6 6 6 7 8 8 7 7 8 8 8 9 10 12 14 16 18 18 18 18 17 14 11 8
4 4 4 4 4 4 4 4 4 4 4 4 4 4 4 4 4 4 4 4 4 4 4 4 4 4 4 4 4 5 6 6 7 8 8 5 4 3 3 3 3 4 5 6 6 6 6 8 9 9 9 8 7 5 4 4 4 4 5 5 5 5 6 6 6 6 6 7 7 7 7 7 7 7 9 12 15 16 17 18 18 17 17 16 15 12
3 3 3 3 3 3 3 3 4 4 4 4 4 4 4 4 4 4 4 4 4 4 4 5 5 5 5 5 5 5 6 6 6 7 7 5 3 3 3 3 4 4 4 5 6 7 7 8 9 9 8 7 6 6 6 6 6 5 5 5 5 5 5 5 5 5 6 7 8 8 7 7 7 8 9 12 14 14 15 16 16 16 16 16 15 14
3 3 3 2 2 2 3 3 3 3 3 3 4 4 4 4 5 5 5 5 5 5 5 4 4 5 7 7 7 7 7 6 7 7 7 5 3 2 3 3 4 4 4 4 5 6 7 8 9 9 7 6 7 7 8 8 8 7 7 6 6 5 5 5 5 5 6 7 8 8 8 8 7 7 8 9 9 9 9 9 10 12 13 13 13 14
2 2 3 3 2 2 2 3 3 3 3 4 4 4 4 5 5 5 4 5 5 5 5 5 4 4 6 7 8 8 8 7 7 7 6 4 3 2 2 3 4 4 4 4 4 5 6 7 8 8 8 8 8 8 7 7 7 8 8 7 6 5 4 5 5 6 6 7 7 8 8 7 7 7 7 7 7 7 7 7 8 9 9 7 8 10
1 2 2 3 2 2 2 3 3 4 4 4 4 5 4 4 4 4 4 4 4 5 5 5 4 4 5 5 6 6 7 6 6 6 5 4 3 2 2 3 4 4 5 4 4 4 5 7 8 8 8 8 8 8 7 7 7 8 10 8 6 5 6 6 6 6 6 6 6 7 7 7 7 7 7 7 7 7 7 6 7 7 8 6 5 5
1 2 2 3 3 3 3 4 4 4 4 4 4 4 4 4 4 4 4 4 4 4 4 5 5 5 4 3 3 3 4 5 6 6 5 5 4 3 2 3 3 4 5 5 5 5 6 7 8 8 8 8 8 9 9 8 9 10 11 8 7 7 8 8 7 6 6 6 6 7 8 8 8 8 8 8 7 7 7 7 7 7 7 5 4 3
1 2 3 3 3 3 3 4 4 4 4 3 3 3 3 4 4 5 5 5 5 5 5 6 6 6 6 4 3 3 3 4 5 6 6 5 5 4 3 3 3 4 4 6 6 7 7 7 8 8 7 7 8 8 8 8 8 9 9 9 9 9 8 7 6 5 6 6 6 7 8 8 7 7 8 8 7 7 7 7 8 8 8 5 4 3
2 2 3 3 3 3 4 4 4 4 4 3 3 3 3 3 4 4 5 5 5 6 6 6 6 6 6 6 5 4 3 3 4 5 5 5 4 4 4 4 4 4 4 5 6 7 7 7 7 7 7 7 7 8 9 9 8 8 7 8 9 8 6 5 5 5 6 6 6 6 7 7 7 7 7 7 7 7 7 8 9 9 8 6 4 4
2 2 3 3 3 3 3 3 3 3 4 4 4 4 4 4 4 4 4 4 5 5 5 5 5 5 5 5 6 5 5 4 4 4 4 5 6 6 5 5 5 5 3 4 6 7 8 8 7 7 6 6 7 7 8 8 8 7 7 8 8 7 6 6 7 7 7 7 6 6 6 7 7 7 7 7 7 6 6 6 6 5 6 5 5 4
2 2 3 3 3 3 3 3 3 3 3 4 4 4 4 4 4 4 4 4 5 5 4 5 5 5 4 5 5 6 6 5 4 4 3 6 8 9 7 6 5 5 4 4 5 6 7 8 8 7 5 5 6 7 8 8 8 8 8 8 8 8 7 7 7 7 7 7 7 6 6 7 7 7 7 7 7 6 6 6 5 5 5 5 4 4
2 2 3 3 3 3 4 4 4 4 3 4 4 4 4 4 4 4 4 4 4 4 4 4 4 4 5 6 6 6 6 6 5 5 4 5 5 5 5 5 5 5 5 5 5 6 6 7 7 7 6 6 6 6 7 7 7 8 8 8 8 7 7 7 7 7 7 7 7 7 7 8 7 7 7 7 7 6 6 6 6 5 5 5 4 4
2 3 3 3 3 3 4 4 4 4 4 4 4 4 4 4 4 4 4 4 4 4 5 4 4 4 4 5 5 6 6 7 6 6 6 6 6 5 5 5 6 6 6 6 6 6 7 7 7 7 6 6 5 5 5 6 6 7 7 7 7 7 7 6 6 6 6 7 7 7 8 8 8 7 7 7 7 6 6 5 5 5 5 5 5 4
2 3 3 3 3 4 4 4 4 4 4 4 4 4 4 4 5 5 4 4 4 5 6 5 4 4 4 4 5 5 7 7 7 7 7 7 7 7 7 6 6 6 6 6 6 7 7 8 8 7 6 5 5 5 5 5 6 6 6 7 7 7 7 7 7 6 6 6 7 8 8 7 7 7 8 8 7 7 6 6 5 5 4 4 4 4
1 2 3 3 3 4 4 4 4 4 4 4 4 4 4 5 6 6 4 4 4 4 5 5 5 5 4 4 5 6 7 7 6 6 6 7 7 7 8 8 7 7 6 5 5 5 5 7 8 8 7 6 5 5 6 6 5 5 5 6 6 7 7 7 7 7 6 7 7 7 7 6 6 7 7 7 8 8 7 7 6 5 4 4 4 4
1 2 2 3 3 4 4 4 4 5 5 5 5 5 4 4 4 4 3 4 4 4 4 5 5 5 5 5 5 6 7 7 6 6 6 6 7 7 8 8 9 9 8 6 5 4 4 4 5 6 7 7 6 5 5 5 5 5 6 6 6 6 6 7 7 7 7 7 7 8 8 7 6 6 6 6 8 8 8 7 6 5 4 3 3 4
2 2 3 3 3 4 4 4 4 5 5 6 5 5 4 4 4 4 4 4 4 4 4 4 5 5 6 6 6 6 7 6 7 7 7 7 7 7 8 8 8 9 9 9 8 8 6 6 5 4 4 5 5 4 3 4 5 6 6 6 5 5 6 6 7 7 8 8 7 7 7 7 6 5 5 5 6 7 8 7 7 6 5 4 4 4
Wind_Direction
3 340 350 12 43 56 5 351 4 18 6 349 339 335 333 338 332 326 330 338 339 333 329 324 323 323 326 331 333 334 334 332 331 331 331 331 330 330 330 330 329 329 328 328 328 329 328 328 327 325 323 321 319 317 316 315 315 314 314 314 313 313 312 311 310 309 308 307 307 307 307 308 309 309 310 312 314 315 315 314 313 312 310 310 309 310
341 339 355 16 39 54 352 330 347 19 4 336 325 322 325 326 325 325 328 335 335 330 325 321 321 322 322 324 329 332 333 333 333 333 333 332 331 331 330 330 329 329 328 329 329 329 329 329 328 326 324 322 320 319 317 316 316 315 315 314 314 314 313 312 311 309 308 308 307 307 307 307 307 308 309 311 312 312 312 311 310 309 309 309 309 310
336 342 352 13 34 46 357 318 312 299 276 291 295 300 307 316 323 328 331 332 330 327 321 318 320 321 320 320 326 330 332 334 335 335 334 333 332 331 330 329 329 329 329 329 329 330 330 330 329 327 326 324 322 320 319 318 317 317 316 316 315 314 314 312 311 310 308 307 306 306 306 306 306 306 307 308 309 309 308 308 308 308 308 308 309 310
329 339 339 0 23 29 334 302 292 279 260 268 279 287 291 308 318 319 320 323 324 324 320 318 319 321 320 319 323 328 332 335 336 336 335 334 332 331 330 330 329 329 329 329 329 330 330 330 329 328 327 325 324 322 321 320 319 319 318 318 317 316 314 313 311 310 308 307 306 305 304 304 304 305 305 305 306 306 306 307 307 307 307 308 308 310
306 307 318 0 14 354 302 289 286 282 277 280 287 295 299 304 307 309 314 321 325 326 324 325 324 323 320 318 321 326 331 335 336 336 335 333 332 331 330 330 329 329 329 329 329 329 330 330 329 329 328 326 325 324 323 323 322 321 321 320 318 317 315 313 312 310 308 307 306 305 304 304 304 303 303 304 304 305 306 306 306 306 307 308 309 310
274 286 325 11 22 309 294 296 303 309 304 303 304 303 304 300 304 311 321 328 329 329 328 328 324 319 315 313 321 326 330 332 333 333 333 332 331 330 330 329 329 329 329 329 329 329 329 329 329 329 328 327 327 326 326 325 324 323 322 321 319 317 316 314 312 311 309 308 307 306 305 304 304 304 303 304 305 305 306 306 306 307 307 308 309 310
279 307 348 0 332 281 285 300 322 336 338 325 320 317 311 312 314 314 317 321 324 326 330 329 326 319 313 313 319 323 326 328 329 329 330 330 330 330 330 329 329 329 329 328 328 329 329 329 329 328 328 328 328 328 327 326 325 324 323 321 319 317 316 314 313 312 311 310 309 308 307 307 306 306 306 307 307 307 308 308 308 308 309 310 310 311
1 343 2 8 358 331 311 308 322 335 338 334 334 330 330 332 330 321 312 311 318 328 333 333 330 327 321 314 316 318 318 320 322 325 327 329 329 329 329 329 329 329 329 328 328 328 329 328 328 328 328 329 329 329 328 327 326 324 322 321 319 318 316 315 315 314 314 313 313 313 312 312 312 311 312 312 312 312 312 312 311 311 311 311 312 312
105 40 2 8 14 8 347 322 317 318 328 346 351 348 343 344 341 338 337 335 334 338 339 337 332 329 323 318 313 309 307 315 321 325 327 328 328 328 328 328 328 329 328 328 328 328 329 328 328 328 329 329 330 329 328 327 326 324 322 321 319 318 318 317 317 318 318 318 319 319 319 319 319 319 318 318 317 316 315 315 314 313 313 313 313 313
83 88 22 329 330 9 28 311 304 306 320 342 32 43 19 359 351 347 347 343 342 342 342 338 331 326 322 319 316 311 309 319 324 328 329 327 326 326 326 327 327 327 327 328 328 328 328 328 328 328 329 330 330 329 328 326 325 323 322 321 321 320 320 320 321 322 323 323 324 325 324 324 324 323 322 321 319 318 317 316 315 315 314 314 314 314
57 69 104 304 307 308 296 279 285 297 321 351 8 21 35 22 7 355 346 339 338 339 339 335 328 323 320 319 317 317 322 323 325 326 327 326 325 325 325 325 325 325 326 326 327 327 327 327 328 329 330 330 329 328 327 325 324 323 323 323 323 323 323 324 325 326 327 327 327 327 326 325 324 322 321 320 319 317 317 317 317 316 317 316 316 315
80 58 76 345 335 336 332 310 307 317 343 7 8 4 1 12 18 7 346 334 332 332 332 328 323 316 310 308 310 317 329 330 328 326 325 323 323 323 323 323 323 323 324 324 324 324 325 327 329 330 330 330 328 327 325 324 324 324 325 325 326 326 327 327 328 328 329 329 328 327 325 324 322 321 320 319 318 318 318 319 319 320 319 319 318 316
43 38 53 27 11 358 345 340 342 349 3 19 16 1 343 345 356 2 340 322 321 323 324 322 320 313 300 291 298 315 330 330 328 327 326 323 323 323 322 320 320 320 321 321 320 321 323 327 329 330 329 328 326 325 324 324 325 326 327 328 329 329 330 330 330 330 330 329 328 326 324 323 322 321 321 320 320 320 321 321 322 322 321 320 318 317
24 30 44 34 15 358 345 353 0 2 355 3 0 335 310 323 338 348 334 320 314 313 315 316 316 312 300 288 288 313 330 330 328 326 326 323 321 320 320 319 318 318 319 319 317 317 322 327 329 328 327 325 324 323 323 325 327 328 330 331 331 332 332 332 332 331 330 329 327 326 325 324 323 323 323 323 323 323 323 323 323 322 321 320 318 317
87 69 66 48 13 333 318 323 341 336 308 277 266 277 305 327 339 343 339 326 320 317 320 318 314 309 295 287 283 312 339 335 331 327 324 320 319 319 319 318 316 317 321 321 318 318 322 326 324 322 321 321 320 321 324 326 329 331 331 333 333 333 333 333 333 332 330 329 327 326 325 325 325 325 325 325 325 325 324 323 323 322 321 320 318 317
132 114 111 115 179 283 268 247 246 263 275 269 274 306 348 338 334 333 333 323 321 326 333 332 328 320 301 287 289 334 352 341 333 326 322 318 317 320 324 322 319 320 323 322 319 317 319 321 320 319 317 318 320 323 325 327 329 331 332 333 334 334 334 334 333 332 330 329 328 327 326 326 326 327 327 327 326 325 324 324 323 322 321 320 319 319
132 121 127 132 157 243 256 235 215 229 262 276 283 290 312 304 304 312 316 318 323 331 338 338 334 328 318 316 329 356 1 344 331 322 318 314 314 318 327 325 320 318 320 319 316 314 316 319 320 319 316 318 321 324 325 327 329 331 333 334 334 334 334 334 333 331 330 329 328 328 328 328 328 328 328 327 326 325 325 324 323 323 322 321 321 321
121 124 125 128 156 196 279 17 319 272 277 286 286 277 256 246 258 283 304 318 326 330 329 329 323 315 315 317 322 336 356 342 328 319 314 310 309 313 324 322 318 315 316 314 311 310 312 315 317 318 315 319 321 323 325 327 329 331 333 334 335 335 334 334 333 332 330 330 329 329 328 329 328 328 328 327 326 325 325 324 324 323 323 323 324 325
119 130 133 144 161 170 76 348 294 277 276 269 269 283 301 286 284 297 302 313 317 318 316 314 307 299 298 299 305 316 339 333 322 314 310 307 307 312 319 322 318 315 313 311 309 307 309 310 313 315 315 318 319 321 324 326 329 331 333 334 334 335 334 334 333 332 331 330 330 330 329 329 329 328 327 326 326 325 325 324 324 324 325 325 327 328
131 136 140 147 145 136 51 272 256 246 239 231 219 233 289 296 305 314 305 301 295 289 290 297 297 295 293 295 300 308 322 327 321 310 303 302 303 306 314 321 318 314 309 307 305 306 309 311 311 313 314 316 317 320 323 326 328 331 333 334 334 334 334 333 333 332 332 331 331 330 330 329 328 328 327 326 325 325 325 325 325 326 327 328 330 332
136 152 182 169 147 130 208 253 247 236 222 182 141 113 282 298 308 310 299 299 299 301 306 302 298 295 295 299 300 303 312 322 319 308 298 297 298 301 313 320 317 311 306 303 303 306 310 309 308 307 309 312 315 318 322 325 328 330 331 333 333 333 333 333 333 333 332 332 331 330 330 329 328 327 327 326 325 325 325 326 326 328 329 330 332 335
138 162 197 172 154 155 193 231 240 237 216 172 167 281 299 313 317 314 306 307 309 311 311 302 296 292 291 289 288 290 298 299 292 290 297 298 297 299 310 318 313 308 303 303 305 308 308 306 302 301 302 308 312 316 319 323 326 329 330 331 332 332 332 333 332 332 332 332 331 330 330 329 328 327 327 326 325 325 326 327 328 330 331 333 335 337
135 158 188 184 179 180 199 227 241 245 223 199 219 261 290 294 296 293 288 287 290 292 292 289 288 285 280 276 279 282 281 254 229 241 284 293 297 303 315 318 312 305 300 304 308 310 308 303 297 296 298 304 309 313 317 321 324 327 329 330 331 331 332 332 332 332 332 331 331 330 330 329 328 327 327 326 326 326 327 328 330 332 334 336 338 339
135 155 183 194 197 199 208 227 242 246 218 193 199 226 233 240 241 240 232 238 254 267 280 290 297 297 286 279 279 280 274 235 166 153 245 283 293 302 314 317 311 305 300 303 307 308 306 300 294 289 289 298 304 309 315 319 323 325 327 328 329 330 330 331 331 331 331 331 330 330 329 329 328 328 327 327 326 327 328 330 332 334 336 338 340 342
146 165 191 203 207 210 224 264 301 319 154 154 157 177 226 248 252 248 215 249 273 289 303 314 317 314 304 301 296 287 278 237 152 147 217 282 293 300 306 311 310 305 302 303 305 305 303 299 294 289 283 291 300 306 312 317 321 323 325 327 328 328 329 329 330 330 330 330 330 330 329 329 328 328 327 327 327 328 329 331 333 336 338 340 343 344
135 146 159 141 22 9 8 2 3 3 354 15 93 136 153 1 3 7 4 347 333 328 328 327 321 314 307 308 304 297 290 280 186 166 185 288 299 301 303 310 309 305 303 304 305 305 301 298 296 293 289 288 296 304 310 316 319 322 324 325 326 327 328 328 329 329 330 330 330 330 329 329 329 328 328 327 327 328 330 332 335 337 340 343 345 345
90 80 64 48 35 26 19 12 5 358 350 354 4 41 80 55 23 4 350 338 335 336 335 330 322 316 313 312 307 300 297 293 251 191 189 291 301 302 305 312 312 308 304 303 302 301 298 296 294 294 292 285 286 298 309 315 319 321 322 323 324 325 326 327 328 329 329 330 330 330 330 329 329 329 328 327 327 328 330 333 336 339 341 345 348 346
60 55 49 43 37 31 26 17 8 -0 355 352 356 7 37 45 28 359 331 323 325 332 332 326 322 319 318 315 308 300 293 283 258 231 228 297 300 300 306 314 313 310 308 303 299 295 291 287 284 283 282 280 282 294 307 315 318 319 320 321 322 324 325 326 327 328 329 329 330 330 330 330 329 329 328 326 327 328 331 334 337 339 343 347 348 342
47 46 44 40 36 32 27 20 12 4 1 360 2 9 26 45 36 338 300 305 319 327 324 320 317 314 311 307 302 297 286 271 254 249 287 310 303 298 308 315 317 316 315 308 302 294 281 270 265 263 268 282 293 302 308 314 315 315 315 318 320 322 324 326 327 328 329 329 329 329 330 329 329 328 326 326 326 328 332 335 337 339 344 346 342 332
36 36 35 30 26 24 22 17 10 5 3 3 4 6 16 35 37 285 279 295 317 318 310 310 310 311 311 310 308 301 286 271 263 277 327 322 312 306 315 317 319 320 323 319 314 308 296 271 250 245 267 297 306 311 310 311 309 308 308 313 317 320 323 325 327 328 328 328 328 329 329 328 328 326 324 324 326 329 333 335 337 339 343 341 335 327
29 29 22 11 7 7 10 9 5 1 359 360 359 359 1 2 339 265 260 254 264 277 285 294 300 306 311 315 314 309 296 285 294 318 343 326 313 309 318 317 317 320 326 325 320 316 311 303 289 273 291 308 310 310 308 307 306 305 305 310 314 318 322 325 326 327 327 327 327 327 327 326 325 324 322 323 326 330 333 335 336 337 339 336 332 325
39 34 21 4 359 0 5 5 1 357 353 352 349 347 344 342 335 317 274 232 222 236 257 274 284 291 297 297 295 292 292 294 314 330 339 323 310 306 314 312 313 315 320 317 310 306 307 307 309 312 315 313 310 308 306 307 307 307 310 314 315 318 322 324 325 325 324 325 325 325 324 323 321 321 320 323 327 330 333 334 335 335 337 334 329 325
45 33 19 9 6 5 5 1 356 351 346 341 336 334 334 334 332 327 310 264 229 228 241 261 274 282 286 281 277 276 280 287 310 323 331 323 310 306 310 310 311 312 314 308 299 291 289 297 304 310 313 311 309 307 306 307 308 311 315 319 317 317 320 322 322 322 320 321 322 321 320 318 317 318 320 323 327 330 332 332 333 334 335 332 328 324
41 30 20 13 8 4 359 354 350 345 341 335 332 331 330 328 328 325 318 297 260 236 230 245 261 274 285 286 283 280 280 284 305 317 326 322 310 304 308 309 310 312 314 310 305 298 289 294 300 306 308 309 308 307 305 307 311 315 319 319 316 314 316 318 317 316 316 317 316 314 313 312 313 315 320 325 328 330 331 331 332 332 332 330 328 325
35 27 19 13 6 359 352 348 344 340 337 333 331 330 328 327 322 317 313 303 285 258 236 235 241 252 266 279 287 289 289 291 306 315 319 317 309 304 306 305 308 311 314 311 311 308 301 300 303 305 306 308 308 307 305 307 313 317 316 314 311 309 309 311 311 312 312 313 311 307 306 306 310 316 323 327 328 329 329 329 330 330 330 329 328 325
34 23 13 7 0 352 345 340 337 335 333 330 327 326 325 322 316 310 305 299 291 280 265 250 242 239 239 250 266 279 286 292 302 309 311 309 306 303 300 300 306 313 313 311 311 310 306 304 304 305 306 306 307 309 310 315 318 318 316 313 309 306 303 303 305 307 309 309 308 306 306 310 315 322 326 327 327 327 327 327 327 327 327 327 326 324
36 19 4 356 347 341 334 330 329 329 328 326 324 323 321 315 309 303 297 292 288 285 281 273 265 258 256 250 254 263 276 286 294 298 300 300 299 294 287 293 304 312 311 310 310 310 308 305 305 305 304 303 305 310 316 320 322 320 316 314 310 306 303 303 304 305 305 306 306 308 312 317 322 325 325 326 325 325 324 324 324 323 323 323 322 321
30 9 347 335 328 325 325 322 322 321 322 321 319 317 313 305 297 291 289 285 281 279 280 279 277 275 275 276 274 272 275 280 284 288 292 294 293 285 279 291 300 305 302 301 303 306 307 305 306 306 305 302 302 305 311 316 317 316 313 311 308 305 303 304 305 305 304 305 307 311 316 321 324 324 322 323 322 322 320 319 318 318 319 318 317 316
21 353 329 322 316 311 311 310 310 311 312 310 308 305 302 297 291 285 280 278 277 275 274 277 278 279 279 280 283 286 289 289 290 292 296 297 291 283 283 293 298 300 297 293 293 295 297 297 298 300 302 304 305 306 308 310 311 311 311 310 309 307 306 307 307 305 304 306 310 315 319 321 321 319 318 318 318 317 315 313 313 313 314 311 310 310
6 333 314 311 306 298 290 296 298 300 304 305 305 304 303 302 301 298 292 290 291 291 286 286 286 286 286 286 289 293 298 298 300 301 301 299 293 285 289 291 296 299 302 296 290 287 287 288 288 290 292 296 300 303 306 308 309 311 313 314 315 316 317 313 308 304 304 308 313 317 319 318 318 317 317 316 315 314 313 310 309 308 306 303 301 303
344 317 301 300 301 300 295 297 298 299 301 304 309 313 312 317 320 322 320 320 319 318 317 318 317 315 312 307 297 289 289 287 290 292 293 292 289 287 285 283 288 295 302 300 295 290 286 285 286 286 287 290 293 296 299 302 305 307 310 310 309 308 310 309 307 307 310 313 315 316 316 317 317 317 315 314 312 309 306 304 301 300 299 298 297 298
325 306 294 295 301 305 306 306 307 311 312 316 316 316 318 325 328 329 329 331 332 333 335 336 335 332 329 324 313 297 288 284 286 288 288 288 287 285 281 282 287 294 300 300 297 293 288 286 285 286 288 291 294 296 297 298 300 303 305 304 303 304 303 304 306 310 315 315 313 314 316 316 315 314 312 310 306 303 301 299 298 298 299 299 297 292
299 289 285 288 293 297 302 310 318 326 332 331 327 323 321 324 325 326 328 330 331 333 335 336 333 331 327 326 324 320 311 294 286 285 289 287 284 282 285 288 289 293 298 300 298 296 292 289 287 286 287 290 291 292 293 296 298 299 298 299 302 306 308 309 312 314 314 313 313 313 314 313 311 309 307 305 303 301 298 297 297 297 299 298 294 287
278 284 290 297 302 309 320 332 338 339 337 333 329 325 323 324 325 327 329 329 330 330 333 332 329 326 324 323 323 323 320 310 299 291 291 305 311 312 308 300 293 288 283 289 296 299 300 296 291 287 286 287 288 288 288 292 294 296 295 295 297 298 297 304 310 314 313 312 311 311 310 309 308 307 304 301 299 297 295 294 292 292 292 289 285 281
288 300 309 317 329 339 346 343 340 336 333 330 326 323 322 325 328 330 332 330 330 330 330 331 332 332 331 326 324 323 321 318 316 311 303 315 321 322 316 306 298 291 283 279 282 289 295 295 294 291 288 284 282 282 284 287 290 292 293 294 295 294 291 297 304 309 310 310 309 308 307 309 308 307 303 300 298 296 295 295 293 291 288 285 282 278
321 325 327 333 341 346 342 338 336 334 333 330 326 324 323 326 327 328 332 332 331 329 325 331 334 334 327 322 320 320 320 321 322 324 324 321 319 316 310 305 303 301 295 285 278 274 275 280 284 288 291 287 280 275 272 278 284 288 291 295 297 297 297 300 303 305 306 306 306 306 307 309 308 305 302 300 299 298 297 295 293 291 289 286 282 278
341 339 339 339 340 339 336 337 337 338 336 333 329 326 327 327 329 331 336 337 335 332 330 332 332 327 317 314 316 319 320 322 324 326 327 326 323 320 316 312 309 305 297 289 280 273 269 269 271 275 282 284 283 278 271 271 276 282 289 296 300 303 303 302 302 302 302 303 304 306 310 310 308 304 300 300 300 299 297 294 291 288 286 284 281 277
346 345 342 342 343 343 340 341 341 340 336 332 329 329 332 334 339 343 341 339 336 334 334 334 329 321 311 307 310 316 320 323 324 325 326 326 326 326 326 323 318 312 302 291 282 275 268 264 262 261 259 262 270 277 280 277 278 282 292 301 305 305 302 300 300 300 300 300 301 303 305 306 305 303 302 302 301 300 299 298 295 290 284 279 276 273
347 345 344 347 349 348 345 341 340 338 337 335 334 335 335 336 342 345 339 336 333 333 334 333 327 321 313 310 312 317 323 324 324 323 325 326 328 328 328 327 325 322 316 304 291 276 264 259 255 250 243 238 246 261 275 281 288 296 303 304 303 301 298 299 300 302 303 301 299 298 297 296 295 295 298 299 299 299 300 299 298 293 285 277 271 268
354 354 352 353 351 348 341 337 338 339 339 340 340 339 336 336 338 339 334 333 332 332 332 329 325 320 316 316 319 324 328 327 326 325 326 327 329 329 329 329 329 329 328 325 322 314 299 280 265 254 243 238 243 258 280 293 301 304 303 299 297 297 298 299 301 303 304 302 300 297 295 291 289 288 289 292 295 296 298 299 298 296 292 285 277 273
358 356 359 356 351 344 337 335 338 341 342 342 341 339 336 336 336 337 338 339 337 334 331 326 321 319 318 320 323 326 328 326 326 325 325 326 326 327 327 329 331 333 334 335 336 336 335 331 322 302 272 263 271 287 300 304 305 304 300 297 297 298 299 300 300 301 302 300 298 295 292 290 287 285 286 290 294 297 298 298 298 297 296 294 289 283